| time (UTC) | temp F | wind direction | speed MPH | gust MPH | rain 1hr in | rain 24hr in | rain mn in | humidity % | barometer mb |
| 20260507083216 | 48 | 90 | 2.0 | 5.0 | 0.00 | 0.00 | 0.00 | 68 | 1014.3 |
| 20260507082217 | 48 | 23 | 6.0 | 15.0 | 0.00 | 0.00 | 0.00 | 67 | 1014.4 |
| 20260507081217 | 47 | 0.0 | 1.0 | 0.00 | 0.00 | 0.00 | 67 | 1014.3 | |
| 20260507080217 | 47 | 248 | 2.0 | 4.0 | 0.00 | 0.00 | 0.00 | 69 | 1014.1 |
| 20260507075216 | 47 | 68 | 2.0 | 3.0 | 0.00 | 0.00 | 0.00 | 69 | 1014.1 |
| 20260507074216 | 46 | 270 | 2.0 | 4.0 | 0.00 | 0.00 | 0.00 | 69 | 1014.2 |
| 20260507073217 | 46 | 0.0 | 2.0 | 0.00 | 0.00 | 0.00 | 70 | 1014.2 | |
| 20260507072216 | 46 | 248 | 1.0 | 2.0 | 0.00 | 0.00 | 0.00 | 70 | 1014.1 |
| 20260507071216 | 45 | 23 | 1.0 | 3.0 | 0.00 | 0.00 | 0.00 | 70 | 1014.3 |
| 20260507070216 | 46 | 135 | 1.0 | 3.0 | 0.00 | 0.00 | 0.00 | 70 | 1014.4 |
| 20260507065217 | 46 | 0.0 | 2.0 | 0.00 | 0.00 | 0.00 | 68 | 1014.3 | |
| 20260507064217 | 45 | 45 | 1.0 | 2.0 | 0.00 | 0.00 | 0.00 | 68 | 1014.2 |
| 20260507063217 | 45 | 23 | 1.0 | 2.0 | 0.00 | 0.00 | 0.00 | 68 | 1014.2 |
| 20260507062216 | 45 | 0.0 | 1.0 | 0.00 | 0.00 | 0.00 | 68 | 1014.4 | |
| 20260507061217 | 45 | 0.0 | 1.0 | 0.00 | 0.00 | 0.00 | 69 | 1014.3 | |
| 20260507060216 | 45 | 0 | 1.0 | 4.0 | 0.00 | 0.00 | 0.00 | 69 | 1014.1 |
| 20260507055216 | 45 | 45 | 1.0 | 2.0 | 0.00 | 0.00 | 0.00 | 69 | 1014.2 |
| 20260507054216 | 45 | 113 | 1.0 | 3.0 | 0.00 | 0.00 | 0.00 | 70 | 1014.2 |
| 20260507053216 | 45 | 0 | 1.0 | 2.0 | 0.00 | 0.00 | 0.00 | 70 | 1014.1 |
| 20260507052216 | 44 | 0.0 | 1.0 | 0.00 | 0.00 | 0.00 | 70 | 1014.2 | |
| 20260507051216 | 44 | 0.0 | 1.0 | 0.00 | 0.00 | 0.00 | 71 | 1014.2 | |
| 20260507050216 | 44 | 293 | 1.0 | 2.0 | 0.00 | 0.00 | 0.00 | 71 | 1014.2 |
| 20260507045216 | 44 | 203 | 1.0 | 2.0 | 0.00 | 0.00 | 0.00 | 72 | 1014.3 |
| 20260507044216 | 43 | 293 | 1.0 | 2.0 | 0.00 | 0.00 | 0.00 | 72 | 1014.3 |
| 20260507043216 | 43 | 0.0 | 1.0 | 0.00 | 0.00 | 0.00 | 73 | 1014.2 | |
| 20260507042216 | 43 | 0.0 | 2.0 | 0.00 | 0.00 | 0.00 | 72 | 1014.3 | |
| 20260507041236 | 42 | 203 | 1.0 | 2.0 | 0.00 | 0.00 | 0.00 | 73 | 1014.3 |
| 20260507040316 | 43 | 0.0 | 1.0 | 0.00 | 0.00 | 0.00 | 73 | 1014.4 | |
| 20260507035216 | 42 | 0.0 | 1.0 | 0.00 | 0.00 | 0.00 | 73 | 1014.4 | |
| 20260507034216 | 42 | 113 | 1.0 | 2.0 | 0.00 | 0.00 | 0.00 | 72 | 1014.5 |
| 20260507033216 | 42 | 0.0 | 2.0 | 0.00 | 0.00 | 0.00 | 72 | 1014.3 | |
| 20260507032236 | 42 | 0.0 | 0.0 | 0.00 | 0.00 | 0.00 | 72 | 1014.3 | |
| 20260507031216 | 42 | 315 | 1.0 | 2.0 | 0.00 | 0.00 | 0.00 | 72 | 1014.1 |
| 20260507030216 | 42 | 293 | 1.0 | 2.0 | 0.00 | 0.00 | 0.00 | 72 | 1014.0 |
| 20260507025216 | 42 | 0.0 | 1.0 | 0.00 | 0.00 | 0.00 | 72 | 1013.8 | |
| 20260507024216 | 42 | 0.0 | 1.0 | 0.00 | 0.00 | 0.00 | 72 | 1013.7 | |
| 20260507023216 | 42 | 0.0 | 1.0 | 0.00 | 0.00 | 0.00 | 71 | 1014.1 | |
| 20260507022216 | 42 | 0.0 | 1.0 | 0.00 | 0.00 | 0.00 | 71 | 1014.0 | |
| 20260507021216 | 42 | 0.0 | 2.0 | 0.00 | 0.00 | 0.00 | 71 | 1013.9 | |
| 20260507020216 | 43 | 135 | 1.0 | 3.0 | 0.00 | 0.00 | 0.00 | 70 | 1013.9 |
| 20260507015216 | 43 | 0.0 | 1.0 | 0.00 | 0.00 | 0.00 | 69 | 1013.8 | |
| 20260507014216 | 43 | 248 | 1.0 | 1.0 | 0.00 | 0.00 | 0.00 | 69 | 1013.4 |
| 20260507013216 | 43 | 180 | 1.0 | 3.0 | 0.00 | 0.00 | 0.00 | 68 | 1013.4 |
| 20260507012216 | 43 | 0.0 | 1.0 | 0.00 | 0.00 | 0.00 | 68 | 1013.4 | |
| 20260507010236 | 43 | 0.0 | 0.0 | 0.00 | 0.00 | 0.00 | 67 | 1013.7 | |
| 20260507005216 | 43 | 0.0 | 1.0 | 0.00 | 0.00 | 0.00 | 66 | 1013.8 | |
| 20260507004215 | 43 | 315 | 1.0 | 2.0 | 0.00 | 0.00 | 0.00 | 66 | 1013.8 |
| 20260507003216 | 43 | 0.0 | 0.0 | 0.00 | 0.00 | 0.00 | 67 | 1013.7 | |
| 20260507002216 | 44 | 0.0 | 0.0 | 0.00 | 0.00 | 0.00 | 67 | 1014.0 | |
| 20260507001215 | 44 | 0.0 | 0.0 | 0.00 | 0.00 | 0.00 | 65 | 1014.1 | |
| 20260507000216 | 44 | 0.0 | 1.0 | 0.00 | 0.00 | 0.00 | 64 | 1014.0 | |
| 20260506235256 | 44 | 0.0 | 1.0 | 0.00 | 0.00 | 0.00 | 64 | 1013.9 | |
| 20260506234256 | 44 | 0.0 | 2.0 | 0.00 | 0.00 | 0.00 | 63 | 1014.0 | |
| 20260506233236 | 44 | 0.0 | 0.0 | 0.00 | 0.00 | 0.00 | 63 | 1014.0 | |
| 20260506232216 | 44 | 0.0 | 1.0 | 0.00 | 0.00 | 0.00 | 63 | 1013.8 | |
| 20260506231215 | 45 | 23 | 1.0 | 2.0 | 0.00 | 0.00 | 0.00 | 62 | 1013.6 |
| 20260506230235 | 45 | 23 | 1.0 | 2.0 | 0.00 | 0.00 | 0.00 | 62 | 1013.9 |
| 20260506225216 | 45 | 113 | 4.0 | 6.0 | 0.00 | 0.00 | 0.00 | 62 | 1014.0 |
| 20260506224238 | 45 | 0.0 | 3.0 | 0.00 | 0.00 | 0.00 | 63 | 1013.7 | |
| 20260506223258 | 45 | 90 | 1.0 | 4.0 | 0.00 | 0.00 | 0.00 | 62 | 1013.9 |
| 20260506222217 | 45 | 135 | 4.0 | 5.0 | 0.00 | 0.00 | 0.00 | 62 | 1013.9 |
| 20260506221217 | 45 | 113 | 7.0 | 15.0 | 0.00 | 0.00 | 0.00 | 60 | 1013.9 |
| 20260506220217 | 45 | 90 | 6.0 | 10.0 | 0.00 | 0.00 | 0.00 | 59 | 1014.0 |
| 20260506215217 | 46 | 135 | 7.0 | 11.0 | 0.00 | 0.00 | 0.00 | 59 | 1014.1 |
| 20260506214217 | 46 | 113 | 7.0 | 9.0 | 0.00 | 0.00 | 0.00 | 59 | 1014.0 |
| 20260506213217 | 46 | 113 | 8.0 | 10.0 | 0.00 | 0.00 | 0.00 | 59 | 1014.3 |
| 20260506212217 | 46 | 113 | 3.0 | 6.0 | 0.00 | 0.00 | 0.00 | 60 | 1014.2 |
| 20260506211217 | 46 | 135 | 5.0 | 7.0 | 0.00 | 0.00 | 0.00 | 61 | 1014.3 |
| 20260506210217 | 46 | 135 | 2.0 | 3.0 | 0.00 | 0.00 | 0.00 | 61 | 1014.4 |
| 20260506205216 | 46 | 0.0 | 0.0 | 0.00 | 0.00 | 0.00 | 62 | 1014.1 | |
| 20260506204216 | 46 | 0.0 | 3.0 | 0.00 | 0.00 | 0.00 | 61 | 1014.1 | |
| 20260506203236 | 46 | 0.0 | 1.0 | 0.00 | 0.00 | 0.00 | 60 | 1013.9 | |
| 20260506202216 | 46 | 0.0 | 1.0 | 0.00 | 0.00 | 0.00 | 60 | 1013.7 | |
| 20260506201216 | 47 | 0 | 1.0 | 2.0 | 0.00 | 0.00 | 0.00 | 59 | 1013.6 |
| 20260506200216 | 47 | 0.0 | 0.0 | 0.00 | 0.00 | 0.00 | 58 | 1013.6 | |
| 20260506195216 | 47 | 0.0 | 1.0 | 0.00 | 0.00 | 0.00 | 58 | 1013.7 | |
| 20260506194216 | 47 | 0.0 | 1.0 | 0.00 | 0.00 | 0.00 | 57 | 1013.7 | |
| 20260506193256 | 47 | 45 | 1.0 | 1.0 | 0.00 | 0.00 | 0.00 | 55 | 1013.8 |
| 20260506192216 | 47 | 0.0 | 1.0 | 0.00 | 0.00 | 0.00 | 54 | 1013.7 | |
| 20260506191215 | 48 | 0.0 | 2.0 | 0.00 | 0.00 | 0.00 | 52 | 1013.5 | |
| 20260506190216 | 48 | 0.0 | 2.0 | 0.00 | 0.00 | 0.00 | 50 | 1013.4 | |
| 20260506185216 | 48 | 0.0 | 2.0 | 0.00 | 0.00 | 0.00 | 49 | 1013.3 | |
| 20260506184215 | 48 | 90 | 1.0 | 2.0 | 0.00 | 0.00 | 0.00 | 48 | 1013.3 |
| 20260506183216 | 48 | 45 | 2.0 | 5.0 | 0.00 | 0.00 | 0.00 | 48 | 1013.4 |
| 20260506182216 | 48 | 0.0 | 1.0 | 0.00 | 0.00 | 0.00 | 50 | 1013.5 | |
| 20260506181216 | 48 | 0.0 | 0.0 | 0.00 | 0.00 | 0.00 | 48 | 1013.5 | |
| 20260506180215 | 48 | 0.0 | 1.0 | 0.00 | 0.00 | 0.00 | 48 | 1013.5 | |
| 20260506175216 | 49 | 0.0 | 1.0 | 0.00 | 0.00 | 0.00 | 47 | 1013.7 | |
| 20260506174236 | 49 | 113 | 1.0 | 2.0 | 0.00 | 0.00 | 0.00 | 46 | 1013.7 |
| 20260506173215 | 49 | 113 | 1.0 | 3.0 | 0.00 | 0.00 | 0.00 | 44 | 1013.7 |
| 20260506172216 | 49 | 135 | 1.0 | 4.0 | 0.00 | 0.00 | 0.00 | 44 | 1013.7 |
| 20260506171216 | 50 | 113 | 2.0 | 4.0 | 0.00 | 0.00 | 0.00 | 46 | 1013.8 |
| 20260506170216 | 50 | 113 | 1.0 | 2.0 | 0.00 | 0.00 | 0.00 | 46 | 1013.7 |
| 20260506165215 | 50 | 90 | 3.0 | 6.0 | 0.00 | 0.00 | 0.00 | 44 | 1013.6 |
| 20260506164218 | 50 | 23 | 2.0 | 5.0 | 0.00 | 0.00 | 0.00 | 44 | 1013.4 |
| 20260506163217 | 51 | 113 | 1.0 | 3.0 | 0.00 | 0.00 | 0.00 | 45 | 1013.4 |
| 20260506162215 | 51 | 45 | 2.0 | 4.0 | 0.00 | 0.00 | 0.00 | 45 | 1013.3 |
| 20260506161218 | 51 | 113 | 4.0 | 9.0 | 0.00 | 0.00 | 0.00 | 46 | 1013.4 |
| 20260506160217 | 52 | 90 | 3.0 | 7.0 | 0.00 | 0.00 | 0.00 | 44 | 1013.4 |
| 20260506155217 | 52 | 23 | 1.0 | 2.0 | 0.00 | 0.00 | 0.00 | 45 | 1013.3 |
| 20260506154217 | 53 | 90 | 1.0 | 2.0 | 0.00 | 0.00 | 0.00 | 46 | 1013.4 |
| 20260506153237 | 53 | 90 | 1.0 | 3.0 | 0.00 | 0.00 | 0.00 | 44 | 1013.5 |
| 20260506152217 | 54 | 23 | 1.0 | 2.0 | 0.00 | 0.00 | 0.00 | 43 | 1013.7 |
| 20260506151217 | 54 | 0.0 | 1.0 | 0.00 | 0.00 | 0.00 | 42 | 1013.7 | |
| 20260506150217 | 54 | 68 | 1.0 | 1.0 | 0.00 | 0.00 | 0.00 | 43 | 1013.8 |
| 20260506145217 | 55 | 0 | 2.0 | 4.0 | 0.00 | 0.00 | 0.00 | 37 | 1014.0 |
| 20260506144237 | 55 | 315 | 1.0 | 3.0 | 0.00 | 0.00 | 0.00 | 41 | 1014.2 |
| 20260506143217 | 55 | 0.0 | 2.0 | 0.00 | 0.00 | 0.00 | 42 | 1014.2 | |
| 20260506142217 | 55 | 68 | 2.0 | 5.0 | 0.00 | 0.00 | 0.00 | 39 | 1014.3 |
| 20260506141217 | 56 | 0.0 | 1.0 | 0.00 | 0.00 | 0.00 | 38 | 1014.3 | |
| 20260506140217 | 56 | 23 | 3.0 | 4.0 | 0.00 | 0.00 | 0.00 | 38 | 1014.3 |
| 20260506135217 | 56 | 90 | 1.0 | 2.0 | 0.00 | 0.00 | 0.00 | 39 | 1014.3 |
| 20260506134217 | 55 | 113 | 2.0 | 5.0 | 0.00 | 0.00 | 0.00 | 40 | 1014.2 |
| 20260506133217 | 56 | 68 | 1.0 | 2.0 | 0.00 | 0.00 | 0.00 | 36 | 1014.2 |
| 20260506132217 | 56 | 113 | 3.0 | 4.0 | 0.00 | 0.00 | 0.00 | 37 | 1014.3 |
| 20260506131237 | 55 | 113 | 2.0 | 5.0 | 0.00 | 0.00 | 0.00 | 36 | 1014.3 |
| 20260506130217 | 55 | 113 | 1.0 | 6.0 | 0.00 | 0.00 | 0.00 | 35 | 1014.3 |
| 20260506125217 | 56 | 90 | 2.0 | 4.0 | 0.00 | 0.00 | 0.00 | 33 | 1014.3 |
| 20260506124217 | 55 | 23 | 4.0 | 7.0 | 0.00 | 0.00 | 0.00 | 39 | 1014.2 |
| 20260506123217 | 53 | 135 | 5.0 | 8.0 | 0.00 | 0.00 | 0.00 | 39 | 1014.2 |
| 20260506122257 | 55 | 90 | 1.0 | 4.0 | 0.00 | 0.00 | 0.00 | 40 | 1014.3 |
| 20260506121217 | 55 | 135 | 3.0 | 5.0 | 0.00 | 0.00 | 0.00 | 37 | 1014.5 |
| 20260506120217 | 54 | 293 | 6.0 | 9.0 | 0.00 | 0.00 | 0.00 | 38 | 1014.5 |
| 20260506115257 | 54 | 113 | 5.0 | 7.0 | 0.00 | 0.00 | 0.00 | 40 | 1014.5 |
| 20260506114217 | 54 | 113 | 3.0 | 5.0 | 0.00 | 0.00 | 0.00 | 38 | 1014.6 |
| 20260506113237 | 55 | 135 | 3.0 | 6.0 | 0.00 | 0.00 | 0.00 | 40 | 1014.7 |
| 20260506112217 | 53 | 315 | 3.0 | 5.0 | 0.00 | 0.00 | 0.00 | 38 | 1014.7 |
| 20260506111216 | 53 | 315 | 11.0 | 13.0 | 0.00 | 0.00 | 0.00 | 40 | 1014.6 |
| 20260506110217 | 53 | 248 | 1.0 | 4.0 | 0.00 | 0.00 | 0.00 | 40 | 1014.9 |
| 20260506105216 | 53 | 203 | 2.0 | 5.0 | 0.00 | 0.00 | 0.00 | 44 | 1014.8 |
| 20260506104217 | 52 | 180 | 1.0 | 3.0 | 0.00 | 0.00 | 0.00 | 39 | 1014.8 |
| 20260506103217 | 52 | 293 | 4.0 | 8.0 | 0.00 | 0.00 | 0.00 | 39 | 1014.9 |
| 20260506102217 | 53 | 293 | 7.0 | 10.0 | 0.00 | 0.00 | 0.00 | 42 | 1015.0 |
| 20260506101216 | 52 | 158 | 1.0 | 2.0 | 0.00 | 0.00 | 0.00 | 42 | 1014.9 |
| 20260506100216 | 52 | 315 | 8.0 | 10.0 | 0.00 | 0.00 | 0.00 | 42 | 1015.0 |
| 20260506095216 | 52 | 338 | 1.0 | 3.0 | 0.00 | 0.00 | 0.00 | 40 | 1015.1 |
| 20260506094217 | 52 | 315 | 2.0 | 4.0 | 0.00 | 0.00 | 0.00 | 42 | 1015.1 |
| 20260506093217 | 51 | 293 | 6.0 | 12.0 | 0.00 | 0.00 | 0.00 | 43 | 1015.0 |
| 20260506092217 | 51 | 315 | 6.0 | 10.0 | 0.00 | 0.00 | 0.00 | 48 | 1015.0 |
| 20260506091217 | 50 | 315 | 3.0 | 4.0 | 0.00 | 0.00 | 0.00 | 45 | 1015.0 |
| 20260506090216 | 50 | 315 | 8.0 | 12.0 | 0.00 | 0.00 | 0.00 | 48 | 1015.0 |
| 20260506085216 | 50 | 293 | 5.0 | 9.0 | 0.00 | 0.00 | 0.00 | 48 | 1015.0 |
| 20260506084217 | 50 | 293 | 3.0 | 6.0 | 0.00 | 0.00 | 0.00 | 49 | 1015.0 |